Hourly Data Report for September 16, 2018

SHEARWATER RCS
NOVA SCOTIA
Current Station Operator: ECCC - MSC

44°37'47.000" N
63°30'48.000" W
24.00 m
8205092
71264
AAW

Download Data

Hourly Data (September 2018)
Hourly Data Report for September 16, 2018
TIME Temp Definition
°C
Dew Point Definition
°C
Rel Hum Definition
%
Wind Dir Definition
10's deg

Wind Spd Definition
km/h
Visibility Definition
km
Stn Press Definition
kPa
Hmdx Definition


Wind Chill Definition


Weather Definition


00:00 15.9 14.1 89 32 4   101.72     LegendNANA
01:00 15.6 12.6 82 30 6   101.72     LegendNANA
02:00 14.3 11.6 84 32 6   101.71     LegendNANA
03:00 14.6 10.8 78 29 6   101.69     LegendNANA
04:00 12.3 10.6 89 25 3   101.68     LegendNANA
05:00 13.7 10.9 83 31 4   101.72     LegendNANA
06:00 14.0 11.6 85 27 3   101.72     LegendNANA
07:00 14.5 12.1 86 24 4   101.77     LegendNANA
08:00 16.1 12.9 82 25 5   101.77     LegendNANA
09:00 18.5 13.4 72 30 6   101.78     LegendNANA
10:00 20.2 14.5 69 27 7   101.83     LegendNANA
11:00 22.1 15.3 66 28 10   101.84 26   LegendNANA
12:00 24.9 16.6 60 31 9   101.81 30   LegendNANA
13:00 25.7 16.5 57 33 13   101.81 31   LegendNANA
14:00 26.4 16.9 56 2 11   101.81 32   LegendNANA
15:00 25.3 16.6 58 36 13   101.81 30   LegendNANA
16:00 26.2 16.1 54 35 12   101.85 31   LegendNANA
17:00 25.0 14.8 53 36 11   101.88 29   LegendNANA
18:00 23.0 15.1 61 2 9   101.92 27   LegendNANA
19:00 21.1 15.4 70 3 9   101.95 25   LegendNANA
20:00 19.7 14.9 74 2 10   102.00     LegendNANA
21:00 19.5 14.8 74 4 8   102.02     LegendNANA
22:00 19.0 14.8 77 6 6   101.99     LegendNANA
23:00 18.9 15.0 78 7 3   102.01     LegendNANA

Notes on Data Quality.

Legend

  • E = Estimated
  • M = Missing
  • NA = Not Available*
  • [empty] = Indicates an unobserved value
Date modified: